Location: Tauranga
(37.6860°S, 176.1670°E)
Time: 05:38:19
(UTC+13:00)

Cosmos 1242 Rocket - Pass Details

Date: 24 January 2019
Orbit: 449 x 490 km, 81.2° (Epoch: 19 February)

Event Time Altitude Azimuth Distance (km) Brightness Sun altitude
Rises 22:54:28 0° 200° (SSW) 2,605 7.5 -22.7°
Reaches altitude 10° 22:56:46 10° 211° (SSW) 1,714 6.4 -23.0°
Maximum altitude 23:00:05 30° 273° (W) 912 4.2 -23.4°
Enters shadow 23:00:49 28° 296° (WNW) 964 4.1 -23.5°
